QPF
0.02 0.02 0.02 0.02 0.02 0.02 0.03 0.03 0.04 0.04 0.03 0.03 0.03 0.02 0.03 0.05 0.07 0.06 0.07 0.08 0.06 0.04 0.04 0.03 0.03 0.02 0.02 0.01 0.01 0.02 0.03 0.06 0.05 0.03 0.02 0.02 0.03 0.03
0.02 0.01 0.01 0.01 0.02 0.02 0.02 0.02 0.02 0.03 0.02 0.02 0.03 0.03 0.02 0.03 0.05 0.06 0.08 0.11 0.10 0.07 0.04 0.03 0.03 0.02 0.01 0.01 0.01 0.01 0.01 0.02 0.04 0.04 0.03 0.03 0.03 0.04
0.02 0.01 0.01 0.01 0.02 0.02 0.02 0.02 0.02 0.02 0.02 0.01 0.02 0.03 0.03 0.03 0.04 0.06 0.07 0.10 0.11 0.10 0.06 0.04 0.03 0.02 0.01 0.01 0.01 0.01 0.01 0.01 0.02 0.03 0.04 0.03 0.03 0.03
0.02 0.02 0.01 0.01 0.02 0.02 0.02 0.02 0.02 0.02 0.02 0.02 0.02 0.03 0.04 0.03 0.03 0.05 0.07 0.09 0.10 0.10 0.08 0.05 0.04 0.02 0.01 0.01 0.01 0.01 0.01 0.01 0.02 0.02 0.02 0.03 0.03 0.04
0.04 0.03 0.02 0.02 0.02 0.02 0.02 0.02 0.02 0.02 0.02 0.02 0.03 0.04 0.04 0.04 0.04 0.05 0.07 0.08 0.10 0.11 0.10 0.07 0.05 0.04 0.02 0.02 0.02 0.02 0.02 0.02 0.02 0.02 0.02 0.02 0.02 0.03
0.07 0.05 0.04 0.03 0.02 0.02 0.03 0.03 0.03 0.03 0.03 0.03 0.03 0.04 0.04 0.05 0.06 0.07 0.07 0.08 0.07 0.08 0.08 0.07 0.06 0.05 0.05 0.04 0.03 0.03 0.02 0.02 0.02 0.02 0.02 0.02 0.02 0.03
0.04 0.03 0.03 0.03 0.02 0.02 0.03 0.03 0.03 0.03 0.03 0.04 0.04 0.04 0.05 0.05 0.05 0.07 0.07 0.08 0.07 0.06 0.06 0.06 0.05 0.05 0.05 0.05 0.05 0.04 0.04 0.03 0.03 0.02 0.02 0.02 0.02 0.02
0.06 0.05 0.04 0.04 0.04 0.04 0.04 0.03 0.04 0.04 0.03 0.03 0.04 0.04 0.04 0.05 0.05 0.07 0.07 0.08 0.08 0.07 0.06 0.07 0.06 0.05 0.05 0.05 0.05 0.05 0.05 0.04 0.03 0.03 0.03 0.03 0.03 0.03
0.04 0.05 0.06 0.06 0.06 0.06 0.06 0.06 0.05 0.05 0.04 0.03 0.03 0.03 0.03 0.04 0.06 0.07 0.08 0.08 0.07 0.06 0.07 0.08 0.08 0.07 0.06 0.06 0.06 0.05 0.04 0.04 0.03 0.03 0.03 0.03 0.03 0.04
0.04 0.04 0.05 0.05 0.06 0.06 0.06 0.05 0.05 0.04 0.03 0.02 0.02 0.03 0.04 0.05 0.07 0.07 0.08 0.09 0.09 0.08 0.08 0.08 0.08 0.07 0.07 0.06 0.06 0.05 0.04 0.03 0.03 0.03 0.04 0.04 0.04 0.05
0.05 0.04 0.05 0.05 0.06 0.07 0.06 0.05 0.05 0.04 0.04 0.04 0.04 0.04 0.05 0.07 0.09 0.09 0.09 0.10 0.10 0.10 0.09 0.09 0.07 0.06 0.06 0.06 0.06 0.05 0.04 0.04 0.03 0.03 0.03 0.04 0.04 0.05
0.07 0.06 0.06 0.06 0.07 0.06 0.06 0.06 0.06 0.04 0.03 0.03 0.04 0.05 0.05 0.06 0.08 0.08 0.08 0.08 0.07 0.07 0.07 0.07 0.07 0.06 0.06 0.06 0.04 0.04 0.04 0.04 0.04 0.04 0.04 0.04 0.05 0.05
0.09 0.09 0.10 0.09 0.07 0.06 0.06 0.06 0.07 0.05 0.04 0.04 0.04 0.04 0.04 0.04 0.06 0.07 0.07 0.07 0.06 0.05 0.04 0.06 0.07 0.06 0.06 0.07 0.05 0.03 0.03 0.04 0.05 0.06 0.06 0.06 0.06 0.06
0.10 0.09 0.10 0.10 0.09 0.07 0.06 0.06 0.08 0.07 0.05 0.05 0.05 0.04 0.04 0.04 0.05 0.07 0.08 0.08 0.07 0.06 0.05 0.06 0.08 0.07 0.07 0.07 0.06 0.05 0.05 0.06 0.07 0.07 0.07 0.07 0.06 0.06
0.09 0.10 0.10 0.09 0.08 0.07 0.06 0.06 0.06 0.06 0.06 0.06 0.06 0.05 0.04 0.05 0.05 0.06 0.08 0.09 0.09 0.08 0.07 0.07 0.08 0.07 0.07 0.06 0.05 0.04 0.06 0.07 0.07 0.08 0.07 0.06 0.05 0.05
0.07 0.08 0.07 0.06 0.06 0.06 0.06 0.05 0.04 0.05 0.05 0.05 0.05 0.06 0.05 0.05 0.05 0.05 0.06 0.07 0.08 0.08 0.08 0.08 0.09 0.08 0.06 0.05 0.05 0.05 0.05 0.06 0.06 0.05 0.05 0.05 0.05 0.05
0.05 0.05 0.05 0.05 0.05 0.05 0.04 0.04 0.04 0.04 0.05 0.06 0.06 0.06 0.06 0.05 0.05 0.05 0.05 0.05 0.06 0.07 0.07 0.08 0.08 0.08 0.06 0.05 0.05 0.06 0.06 0.06 0.06 0.04 0.04 0.05 0.05 0.04
0.03 0.03 0.02 0.03 0.03 0.03 0.02 0.02 0.03 0.03 0.04 0.06 0.06 0.06 0.06 0.05 0.05 0.05 0.05 0.05 0.05 0.05 0.06 0.06 0.07 0.07 0.06 0.06 0.06 0.05 0.05 0.05 0.05 0.05 0.04 0.05 0.05 0.04
0.02 0.02 0.02 0.02 0.02 0.02 0.02 0.02 0.02 0.03 0.04 0.05 0.05 0.05 0.05 0.04 0.04 0.04 0.05 0.05 0.05 0.05 0.05 0.04 0.04 0.05 0.04 0.04 0.05 0.05 0.05 0.05 0.05 0.05 0.04 0.04 0.04 0.04
0.02 0.02 0.02 0.03 0.03 0.03 0.02 0.02 0.03 0.03 0.03 0.04 0.05 0.04 0.04 0.04 0.04 0.04 0.04 0.04 0.04 0.04 0.04 0.04 0.04 0.04 0.04 0.04 0.04 0.04 0.04 0.04 0.04 0.04 0.04 0.03 0.03 0.03
0.01 0.02 0.02 0.03 0.04 0.03 0.03 0.03 0.03 0.03 0.03 0.03 0.04 0.04 0.04 0.04 0.04 0.04 0.04 0.04 0.04 0.04 0.03 0.03 0.03 0.03 0.03 0.03 0.03 0.03 0.03 0.03 0.04 0.05 0.04 0.04 0.04 0.04
0.01 0.02 0.02 0.02 0.03 0.03 0.03 0.03 0.03 0.03 0.03 0.03 0.04 0.04 0.04 0.04 0.04 0.04 0.03 0.03 0.03 0.03 0.03 0.02 0.02 0.02 0.02 0.03 0.03 0.02 0.02 0.02 0.02 0.02 0.04 0.05 0.06 0.06
0.01 0.02 0.02 0.02 0.02 0.02 0.03 0.03 0.03 0.03 0.03 0.03 0.04 0.04 0.03 0.03 0.03 0.03 0.03 0.02 0.02 0.02 0.02 0.02 0.02 0.02 0.02 0.02 0.02 0.02 0.01 0.01 0.01 0.01 0.02 0.03 0.03 0.03
MSLP
1019.43 1019.78 1020.06 1020.24 1020.32 1020.29 1020.19 1020.04 1019.88 1019.73 1019.62 1019.56 1019.53 1019.53 1019.52 1019.48 1019.41 1019.27 1019.08 1018.84 1018.55 1018.22 1017.85 1017.45 1017.01 1016.54 1016.02 1015.48 1014.94 1014.40 1013.90 1013.45 1013.09 1012.80 1012.59 1012.44 1012.32 1012.22
1019.18 1019.53 1019.82 1020.02 1020.14 1020.17 1020.14 1020.08 1020.00 1019.94 1019.90 1019.87 1019.87 1019.85 1019.81 1019.73 1019.60 1019.41 1019.17 1018.89 1018.57 1018.23 1017.86 1017.46 1017.02 1016.55 1016.02 1015.47 1014.89 1014.31 1013.76 1013.26 1012.84 1012.49 1012.22 1012.01 1011.84 1011.70
1019.00 1019.36 1019.66 1019.90 1020.06 1020.16 1020.22 1020.24 1020.26 1020.27 1020.29 1020.30 1020.29 1020.25 1020.16 1020.02 1019.81 1019.55 1019.24 1018.91 1018.56 1018.19 1017.81 1017.41 1016.97 1016.50 1015.97 1015.41 1014.82 1014.22 1013.64 1013.11 1012.64 1012.24 1011.92 1011.65 1011.44 1011.24
1018.92 1019.29 1019.62 1019.89 1020.11 1020.28 1020.41 1020.52 1020.62 1020.69 1020.75 1020.79 1020.77 1020.69 1020.54 1020.32 1020.04 1019.70 1019.33 1018.93 1018.54 1018.15 1017.75 1017.35 1016.91 1016.44 1015.92 1015.36 1014.76 1014.15 1013.56 1013.00 1012.50 1012.06 1011.69 1011.38 1011.11 1010.87
1018.94 1019.34 1019.70 1020.01 1020.28 1020.51 1020.70 1020.88 1021.03 1021.15 1021.24 1021.28 1021.24 1021.12 1020.92 1020.63 1020.27 1019.87 1019.44 1019.00 1018.58 1018.16 1017.76 1017.35 1016.91 1016.44 1015.92 1015.35 1014.74 1014.12 1013.51 1012.93 1012.41 1011.95 1011.54 1011.19 1010.88 1010.59
1019.06 1019.49 1019.87 1020.21 1020.52 1020.78 1021.02 1021.24 1021.42 1021.57 1021.67 1021.69 1021.63 1021.48 1021.23 1020.90 1020.50 1020.06 1019.60 1019.14 1018.70 1018.28 1017.87 1017.45 1017.01 1016.53 1016.00 1015.41 1014.79 1014.15 1013.52 1012.93 1012.38 1011.90 1011.47 1011.10 1010.75 1010.43
1019.24 1019.69 1020.09 1020.45 1020.77 1021.05 1021.31 1021.53 1021.73 1021.88 1021.97 1021.98 1021.90 1021.73 1021.46 1021.11 1020.70 1020.25 1019.79 1019.35 1018.92 1018.51 1018.11 1017.70 1017.25 1016.75 1016.20 1015.59 1014.94 1014.27 1013.62 1013.00 1012.44 1011.94 1011.50 1011.10 1010.75 1010.41
1019.42 1019.88 1020.29 1020.64 1020.96 1021.24 1021.49 1021.70 1021.89 1022.02 1022.10 1022.10 1022.01 1021.83 1021.57 1021.24 1020.85 1020.44 1020.02 1019.62 1019.23 1018.86 1018.47 1018.07 1017.62 1017.10 1016.52 1015.88 1015.20 1014.50 1013.81 1013.17 1012.59 1012.08 1011.63 1011.24 1010.88 1010.54
1019.54 1020.00 1020.40 1020.75 1021.05 1021.30 1021.53 1021.73 1021.89 1022.00 1022.07 1022.06 1021.98 1021.82 1021.58 1021.29 1020.96 1020.62 1020.27 1019.93 1019.61 1019.28 1018.93 1018.54 1018.09 1017.57 1016.97 1016.29 1015.58 1014.84 1014.13 1013.47 1012.87 1012.35 1011.91 1011.52 1011.18 1010.86
1019.53 1019.99 1020.39 1020.72 1021.00 1021.24 1021.44 1021.61 1021.75 1021.86 1021.91 1021.91 1021.84 1021.71 1021.52 1021.30 1021.04 1020.78 1020.52 1020.26 1020.00 1019.74 1019.43 1019.07 1018.63 1018.11 1017.49 1016.80 1016.06 1015.30 1014.57 1013.89 1013.29 1012.77 1012.33 1011.97 1011.65 1011.35
1019.36 1019.83 1020.22 1020.55 1020.83 1021.06 1021.25 1021.41 1021.55 1021.64 1021.70 1021.71 1021.67 1021.58 1021.44 1021.28 1021.10 1020.92 1020.74 1020.56 1020.38 1020.17 1019.91 1019.59 1019.17 1018.66 1018.05 1017.35 1016.61 1015.85 1015.12 1014.44 1013.84 1013.34 1012.92 1012.57 1012.27 1012.00
1019.04 1019.52 1019.93 1020.27 1020.56 1020.81 1021.01 1021.18 1021.32 1021.43 1021.50 1021.53 1021.52 1021.47 1021.39 1021.28 1021.16 1021.04 1020.93 1020.81 1020.69 1020.54 1020.33 1020.04 1019.66 1019.17 1018.58 1017.91 1017.19 1016.45 1015.74 1015.08 1014.50 1014.01 1013.61 1013.29 1013.02 1012.77
1018.59 1019.09 1019.53 1019.92 1020.24 1020.52 1020.76 1020.97 1021.14 1021.27 1021.37 1021.43 1021.44 1021.42 1021.37 1021.30 1021.22 1021.14 1021.07 1021.00 1020.91 1020.80 1020.63 1020.38 1020.04 1019.59 1019.05 1018.42 1017.75 1017.05 1016.38 1015.76 1015.22 1014.76 1014.38 1014.08 1013.82 1013.60
1018.04 1018.59 1019.08 1019.51 1019.89 1020.23 1020.52 1020.78 1020.99 1021.17 1021.30 1021.38 1021.42 1021.42 1021.38 1021.33 1021.27 1021.20 1021.15 1021.09 1021.03 1020.94 1020.80 1020.58 1020.29 1019.90 1019.41 1018.85 1018.24 1017.61 1017.00 1016.43 1015.93 1015.50 1015.15 1014.87 1014.63 1014.41
1017.45 1018.04 1018.59 1019.08 1019.53 1019.93 1020.29 1020.60 1020.87 1021.09 1021.26 1021.37 1021.43 1021.44 1021.41 1021.35 1021.29 1021.22 1021.16 1021.10 1021.04 1020.96 1020.84 1020.66 1020.41 1020.08 1019.66 1019.17 1018.64 1018.09 1017.54 1017.03 1016.58 1016.19 1015.87 1015.60 1015.37 1015.16
1016.86 1017.48 1018.08 1018.63 1019.13 1019.60 1020.02 1020.39 1020.72 1020.98 1021.19 1021.32 1021.40 1021.42 1021.39 1021.33 1021.25 1021.17 1021.10 1021.03 1020.96 1020.88 1020.78 1020.63 1020.42 1020.15 1019.80 1019.39 1018.93 1018.46 1017.99 1017.54 1017.14 1016.79 1016.49 1016.24 1016.02 1015.82
1016.27 1016.92 1017.54 1018.13 1018.68 1019.19 1019.67 1020.09 1020.46 1020.77 1021.01 1021.18 1021.28 1021.31 1021.29 1021.23 1021.15 1021.06 1020.97 1020.89 1020.82 1020.75 1020.66 1020.54 1020.37 1020.14 1019.85 1019.51 1019.13 1018.73 1018.32 1017.93 1017.58 1017.26 1016.99 1016.76 1016.55 1016.36
1015.70 1016.34 1016.97 1017.57 1018.14 1018.68 1019.18 1019.65 1020.06 1020.41 1020.69 1020.89 1021.02 1021.08 1021.07 1021.03 1020.96 1020.87 1020.79 1020.72 1020.65 1020.58 1020.51 1020.41 1020.28 1020.09 1019.86 1019.58 1019.26 1018.92 1018.57 1018.23 1017.91 1017.63 1017.38 1017.17 1016.97 1016.79
1015.12 1015.74 1016.34 1016.93 1017.49 1018.04 1018.56 1019.05 1019.50 1019.88 1020.20 1020.45 1020.62 1020.72 1020.76 1020.74 1020.70 1020.64 1020.58 1020.52 1020.47 1020.42 1020.37 1020.29 1020.19 1020.04 1019.85 1019.62 1019.34 1019.05 1018.74 1018.44 1018.16 1017.90 1017.68 1017.48 1017.31 1017.15
1014.52 1015.10 1015.66 1016.21 1016.76 1017.30 1017.83 1018.33 1018.81 1019.23 1019.60 1019.89 1020.12 1020.27 1020.36 1020.40 1020.40 1020.38 1020.35 1020.33 1020.30 1020.28 1020.24 1020.19 1020.12 1020.00 1019.84 1019.64 1019.41 1019.15 1018.88 1018.61 1018.35 1018.12 1017.91 1017.74 1017.58 1017.44
1013.89 1014.41 1014.93 1015.44 1015.97 1016.50 1017.03 1017.55 1018.05 1018.52 1018.93 1019.28 1019.56 1019.77 1019.92 1020.01 1020.07 1020.10 1020.12 1020.13 1020.13 1020.14 1020.13 1020.11 1020.05 1019.96 1019.84 1019.67 1019.46 1019.23 1018.99 1018.75 1018.52 1018.30 1018.12 1017.96 1017.82 1017.70
1013.23 1013.70 1014.18 1014.66 1015.17 1015.70 1016.24 1016.78 1017.31 1017.81 1018.27 1018.67 1019.01 1019.28 1019.48 1019.63 1019.74 1019.82 1019.87 1019.92 1019.96 1019.99 1020.01 1020.01 1019.98 1019.92 1019.82 1019.68 1019.51 1019.31 1019.09 1018.88 1018.67 1018.48 1018.30 1018.16 1018.03 1017.91
1012.55 1012.98 1013.44 1013.91 1014.41 1014.95 1015.51 1016.08 1016.64 1017.18 1017.68 1018.13 1018.51 1018.82 1019.07 1019.26 1019.41 1019.52 1019.61 1019.69 1019.76 1019.81 1019.86 1019.88 1019.88 1019.85 1019.78 1019.68 1019.54 1019.37 1019.19 1019.00 1018.81 1018.64 1018.48 1018.34 1018.21 1018.10
Thickness
5557 5555 5554 5553 5550 5549 5548 5546 5545 5549 5555 5554 5549 5547 5543 5541 5540 5539 5538 5537 5536 5534 5532 5530 5528 5525 5523 5520 5517 5514 5511 5508 5505 5503 5502 5501 5500 5500
5547 5545 5543 5541 5539 5537 5536 5535 5535 5535 5540 5544 5539 5535 5532 5530 5529 5528 5528 5527 5526 5524 5522 5520 5518 5516 5514 5511 5508 5504 5501 5498 5495 5493 5492 5490 5489 5489
5536 5534 5532 5530 5528 5527 5525 5524 5524 5524 5526 5529 5527 5523 5520 5519 5517 5516 5516 5516 5515 5514 5512 5510 5509 5506 5504 5501 5498 5494 5491 5488 5486 5483 5481 5479 5478 5477
5527 5525 5522 5520 5518 5517 5515 5515 5514 5513 5513 5515 5515 5512 5509 5508 5506 5505 5505 5505 5505 5504 5502 5501 5498 5496 5493 5491 5487 5484 5481 5478 5476 5473 5471 5469 5467 5466
5518 5515 5513 5510 5509 5507 5506 5505 5504 5502 5501 5501 5502 5500 5498 5496 5495 5494 5494 5494 5494 5493 5492 5490 5487 5484 5482 5479 5476 5474 5470 5468 5466 5463 5460 5458 5455 5454
5507 5504 5502 5501 5499 5498 5497 5495 5494 5492 5491 5489 5489 5489 5487 5485 5483 5483 5483 5484 5484 5483 5481 5479 5477 5474 5471 5469 5466 5463 5460 5457 5455 5452 5449 5447 5445 5443
5495 5494 5492 5490 5489 5488 5487 5486 5485 5484 5482 5480 5480 5478 5477 5474 5473 5471 5471 5473 5473 5472 5469 5468 5466 5464 5461 5458 5454 5451 5449 5446 5444 5442 5439 5437 5435 5433
5485 5484 5483 5481 5479 5478 5477 5476 5475 5474 5474 5472 5471 5468 5468 5466 5463 5460 5459 5459 5461 5460 5457 5457 5455 5453 5450 5447 5444 5441 5438 5436 5434 5431 5429 5427 5425 5424
5475 5474 5473 5472 5470 5470 5469 5467 5466 5465 5464 5463 5461 5460 5458 5456 5453 5450 5448 5447 5447 5446 5444 5445 5444 5443 5439 5436 5433 5431 5428 5425 5423 5420 5419 5417 5416 5415
5464 5463 5463 5462 5461 5460 5460 5460 5458 5457 5455 5453 5452 5450 5447 5444 5442 5440 5437 5435 5435 5433 5431 5431 5432 5431 5429 5426 5423 5420 5418 5416 5413 5411 5409 5408 5407 5406
5454 5453 5452 5452 5451 5450 5450 5450 5450 5448 5445 5442 5440 5438 5435 5433 5431 5428 5426 5425 5426 5424 5420 5417 5418 5418 5418 5417 5414 5411 5408 5406 5404 5401 5399 5398 5397 5397
5444 5443 5442 5442 5441 5440 5439 5440 5440 5438 5434 5432 5430 5428 5425 5423 5420 5418 5417 5415 5414 5413 5410 5406 5405 5403 5404 5405 5402 5400 5398 5396 5393 5392 5390 5389 5388 5388
5434 5433 5433 5432 5431 5429 5429 5430 5428 5426 5424 5422 5420 5418 5416 5414 5411 5409 5406 5405 5404 5402 5399 5396 5393 5391 5389 5390 5391 5390 5388 5386 5384 5383 5381 5380 5380 5379
5424 5423 5422 5421 5420 5419 5419 5418 5416 5414 5412 5410 5409 5407 5405 5403 5400 5398 5396 5393 5392 5391 5389 5386 5383 5382 5380 5379 5380 5380 5378 5376 5375 5374 5373 5372 5372 5372
5413 5412 5411 5410 5409 5408 5407 5407 5405 5403 5401 5400 5399 5396 5394 5392 5389 5387 5385 5384 5382 5380 5379 5377 5375 5373 5371 5370 5370 5369 5368 5367 5367 5366 5365 5365 5365 5366
5402 5401 5400 5399 5397 5396 5395 5395 5393 5391 5390 5389 5388 5385 5383 5381 5380 5378 5376 5375 5373 5372 5369 5368 5366 5363 5363 5363 5362 5361 5359 5358 5358 5358 5357 5358 5359 5359
5391 5391 5390 5388 5387 5385 5384 5383 5381 5380 5379 5378 5377 5375 5373 5371 5370 5368 5366 5365 5363 5363 5360 5358 5356 5354 5353 5354 5353 5353 5352 5351 5350 5350 5351 5352 5353 5353
5380 5379 5377 5376 5374 5373 5372 5371 5370 5370 5368 5367 5365 5364 5363 5361 5360 5358 5356 5355 5353 5352 5351 5349 5348 5347 5346 5345 5344 5344 5343 5343 5342 5343 5344 5345 5347 5347
5368 5367 5365 5363 5362 5361 5360 5361 5360 5359 5357 5356 5355 5354 5352 5351 5349 5348 5346 5345 5344 5342 5341 5340 5339 5339 5339 5338 5336 5334 5334 5335 5335 5336 5336 5338 5339 5340
5356 5354 5353 5352 5351 5351 5350 5350 5349 5348 5347 5346 5345 5343 5342 5340 5339 5337 5336 5335 5334 5333 5332 5331 5330 5329 5328 5327 5326 5325 5325 5326 5328 5329 5330 5331 5333 5334
5346 5344 5343 5342 5341 5340 5340 5339 5339 5338 5336 5336 5334 5333 5331 5329 5328 5327 5326 5325 5324 5324 5324 5323 5321 5319 5318 5318 5318 5319 5319 5319 5320 5321 5323 5325 5327 5329
5336 5335 5334 5332 5332 5331 5330 5329 5328 5327 5326 5325 5324 5323 5321 5320 5318 5317 5317 5317 5316 5316 5315 5313 5312 5312 5312 5312 5312 5312 5314 5314 5315 5316 5316 5318 5319 5322
5327 5325 5324 5323 5323 5322 5321 5320 5318 5317 5316 5315 5314 5313 5312 5311 5309 5309 5308 5308 5308 5307 5306 5306 5305 5305 5305 5305 5305 5306 5306 5308 5310 5312 5313 5313 5314 5315